Regional Weather Roundup
Issued by NWS Sterling, VA

Home | Current Version | Previous Version | Graphics & Text | Print | Product List | Glossary On
Versions: 1 2 3 4 5 6 7 8 9 10 11 12 13 14 15 16 17 18 19 20 21 22 23 24 25 26 27 28 29 30 31 32 33 34 35 36 37 38 39 40 41 42 43 44 45 46 47 48 49 50
998
ASUS41 KLWX 012310
RWRLWX

REGIONAL WEATHER ROUNDUP
NATIONAL WEATHER SERVICE BALTIMORE MD/WASHINGTON DC
700 PM EDT SUN MAY 01 2016

Note: "FAIR" indicates few or no clouds below 12,000 feet
with no significant weather and/or obstructions to visibility.
 TC=TEMPERATURE CELSIUS

 * =Non NWS site. Station does not report precipitation (e.g. rain,
    snow, etc.), thunder, or fog.

DCZ001-MDZ009-015-VAZ040>042-051-053>054-020000-
WASHINGTON METRO

CITY           SKY/WX    TMP DP  RH WIND       PRES   REMARKS
WASHINGTON NAT CLOUDY    58  55  90 E7        30.02R
DULLES         CLOUDY    58  55  90 SE6       30.00S
ANDREWS AFB    CLOUDY    55  54  96 E5        30.01S FOG
FT BELVOIR     CLOUDY    58  55  91 VRB1      30.00S
QUANTICO       CLOUDY    60  57  89 NE5       30.00F
COLLEGE PARK*  CLOUDY    54  54 100 SE3       30.01S
LEESBURG*      CLOUDY    59  59 100 SE7       30.01R
MANASSAS*      CLOUDY    59  59 100 E6        29.99F
GAITHERSBURG*  CLOUDY    54  50  87 E7        30.06R

$$

MDZ006>007-011-014-020000-
BALTIMORE METRO

CITY           SKY/WX    TMP DP  RH WIND       PRES   REMARKS
BWI AIRPORT    CLOUDY    54  53  97 E7        30.01F
MD SCIENCE CTR   N/A     55  52  89 MISG      30.03F
MARTIN STATE   CLOUDY    55  55 100 CALM      30.04F FOG
ANNAPOLIS      CLOUDY    55  54  96 E7        30.02S FOG
FORT MEADE*    CLOUDY    54  52  94 SE3       30.04S

$$

MDZ012-015-019>023-020000-
MARYLAND EASTERN SHORE

CITY           SKY/WX    TMP DP  RH WIND       PRES   REMARKS
OCEAN CITY     CLOUDY    55  53  93 NE3       30.02S
SALISBURY      LGT RAIN  57  56  96 E5        30.01F FOG
CAMBRIDGE*     CLOUDY    54  54 100 CALM      30.02S
EASTON*        CLOUDY   N/A N/A N/A E5        30.06F FOG

$$

MDZ017>025-020000-
SOUTHERN MARYLAND

CITY           SKY/WX    TMP DP  RH WIND       PRES   REMARKS
PATUXENT RIVER CLOUDY    57  55  93 E6        30.00F FOG
ST INIGOES     CLOUDY    58  57  97 NE6         N/A
LEONARDTOWN*   CLOUDY    55  54  94 E3        30.02S

$$

MDZ003>005-020000-
NORTH CENTRAL MARYLAND

CITY           SKY/WX    TMP DP  RH WIND       PRES   REMARKS
FREDERICK*     CLOUDY    55  55 100 MISG      30.05R
HAGERSTOWN APT CLOUDY    58  53  84 E7        30.01R
WESTMINSTER*   FOG       54  48  82 E5        30.03R VSB 3/4

$$

MDZ501>502-020000-
WESTERN MARYLAND

CITY           SKY/WX    TMP DP  RH WIND       PRES   REMARKS
OAKLAND*       PTSUNNY   61  54  77 N3        30.00R
CUMBERLAND*    CLOUDY    61  59  94 NE8       30.01R

$$

VAZ025>031-020000-
SHENANDOAH VALLEY

CITY           SKY/WX    TMP DP  RH WIND       PRES   REMARKS
WINCHESTER*    FAIR      63  55  77 E5        29.97R
FRONT ROYAL*   FAIR      63  57  82 CALM      29.93F
LURAY*         MOCLDY    64  59  82 NE6       29.94S
NEW MARKET*    CLOUDY    67  60  79 N9        29.91R
STAUNTON*      FAIR      72  63  74 S9        29.94R
WAYNESBORO*    FAIR      68  60  75 MISG      29.94S

$$

WVZ021-048>050-054>055-020000-
EASTERN WEST VIRGINIA PANHANDLE

CITY           SKY/WX    TMP DP  RH WIND       PRES   REMARKS
MARTINSBURG    CLOUDY    58  54  86 E8        29.99R
PETERSBURG*    FAIR      75  62  62 CALM      29.92R

$$

VAZ036>039-050-020000-
CENTRAL FOOTHILLS

CITY           SKY/WX    TMP DP  RH WIND       PRES   REMARKS
CHARLOTTESVILL CLOUDY    66  60  81 E3        29.95F
CULPEPER*      CLOUDY    62  60  92 NE5       29.98F
ORANGE*        CLOUDY    64  63  94 CALM      29.98F
GORDONSVILLE*  CLOUDY    65  62  87 CALM      29.96S
WARRENTON*     CLOUDY    61  55  79 NE6       29.98F

$$

VAZ055>057-020000-
NORTH AND CENTRAL PIEDMONT

CITY           SKY/WX    TMP DP  RH WIND       PRES   REMARKS
FREDERICKSBRG* CLOUDY    63  61  93 SE3       29.97F
STAFFORD*      CLOUDY    58  56  91 NE5       30.02F

$$

NCZ024-NYZ072-PAZ021-071-VAZ022-071-020000-
OTHER REGIONAL OBSERVATIONS

CITY           SKY/WX    TMP DP  RH WIND       PRES   REMARKS
NEW YORK CITY  CLOUDY    47  45  93 E9        30.13S FOG
PHILADELPHIA   LGT RAIN  53  50  89 NE6       30.07S FOG
PITTSBURGH     CLOUDY    64  57  78 SW3       29.93R
ROANOKE        PTSUNNY   74  64  71 SE13      29.96R
RICHMOND       CLOUDY    67  64  90 NE3       29.96F
RALEIGH        CLOUDY    74  66  76 S10       29.99F

$$

ANZ530>537-020000-
MARINE OBSERVATIONS

STATION/POSITION TIME  TEMP    WIND        PRES
                       AIR SEA DIR/SP/G
                 (UTC) (F)     (DEG/KT/KT) (MB)
THOMAS PT LIGHT  2300   54 57   90/  7/  8 1017.7F
BALT KEY BRIDGE  2200   54     100/  8/  9 1016.8S
COVE POINT       2200   56     140/  5/  6 1016.9S
LEWISETTA        2200   60 60   80/  3/  4 1015.6F
SOLOMONS ISLAND  2200   57 59   90/  5/  6   N/A
PINEY POINT      2206           80/  3/  3   N/A

$$





USA.gov is the U.S. government's official web portal to all federal, state and local government web resources and services.